Location: Eurasberg
(48.3353°N, 11.0839°E)
Time: 14:28:59
(UTC+00:00)

Cosmos 1933 Rocket - Visible Passes

Search period start: 11 April 2026 00:00
Search period end: 21 April 2026 00:00
Orbit: 601 x 622 km, 82.5° (Epoch: 11 April)

Date Brightness Start Highest point End Pass type
(mag) Time Alt. Az. Time Alt. Az. Time Alt. Az.
11 Apr 4.2 20:00:41 10° SSW 20:04:57 55° WNW 20:09:18 10° N visible
12 Apr 4.6 18:38:46 10° SE 18:42:24 26° E 18:46:05 10° NNE visible
12 Apr 5.2 20:16:02 10° SW 20:20:00 33° WNW 20:24:00 10° N visible
13 Apr 3.9 18:53:02 10° SSE 18:57:10 43° E 19:01:21 10° NNE visible
13 Apr 6.1 20:31:45 10° WSW 20:35:06 21° WNW 20:38:30 10° NNW visible
14 Apr 3.5 19:07:40 10° S 19:12:01 75° E 19:16:25 10° NNE visible
14 Apr 6.6 20:48:03 10° W 20:50:18 14° WNW 20:52:33 10° NNW visible
15 Apr 4.0 19:22:35 10° SSW 19:26:56 66° WNW 19:31:20 10° N visible
16 Apr 5.0 19:37:49 10° SW 19:41:56 39° WNW 19:46:06 10° N visible
17 Apr 6.0 19:53:24 10° SW 19:57:01 25° WNW 20:00:39 10° NNW visible
18 Apr 6.6 20:09:27 10° WSW 20:12:10 16° WNW 20:14:55 10° NNW visible
19 Apr 3.8 18:44:31 10° SSW 18:48:54 78° W 18:53:21 10° N visible
20 Apr 4.8 18:59:39 10° SSW 19:03:53 46° WNW 19:08:09 10° N visible
